Dewpoint
49 55 56 59 61 62 64 64 68 67 68 70 70 72 73 75 74 78 70 71 74 75 75 72 73 72 74 74 73 73 75 76 73
44 53 54 57 60 62 63 64 65 67 68 69 70 69 73 74 74 75 74 75 71 68 74 72 74 74 74 73 74 74 74 72 72
42 52 54 57 59 60 62 63 64 65 67 68 70 71 70 71 72 72 74 75 73 73 73 75 75 75 74 74 75 74 75 76 75
40 51 55 57 57 59 60 61 62 63 66 67 67 68 69 72 71 73 74 72 72 75 75 74 73 74 75 73 74 74 75 75 74
44 53 56 57 57 59 59 60 61 63 65 66 67 70 69 72 72 74 71 74 72 73 73 74 75 75 73 73 73 73 75 73 73
49 55 57 57 56 59 61 62 64 65 66 66 66 68 69 72 73 72 72 72 68 69 69 67 66 69 73 73 72 73 73 72 72
50 56 58 57 54 57 61 64 66 68 67 68 69 67 70 71 70 65 67 68 68 67 68 67 67 67 67 67 67 67 67 72 71
52 55 57 57 56 61 67 68 69 70 68 70 70 70 68 70 70 69 69 70 69 68 68 67 67 67 67 66 63 62 67 68 65
53 56 57 58 57 61 65 67 70 69 69 70 71 72 70 73 72 71 71 71 70 69 68 67 67 66 66 64 61 63 64 65 63
54 54 58 60 58 62 64 67 70 70 72 72 74 74 75 73 72 71 71 70 68 67 67 67 67 66 65 66 65 59 60 63 62
53 56 57 60 59 60 66 67 69 72 72 74 74 74 73 73 72 70 69 69 68 68 67 66 66 65 65 66 59 56 57 59 64
54 57 60 62 59 63 70 70 71 73 73 73 73 72 71 71 70 69 70 69 68 67 65 65 65 65 65 64 62 54 55 59 62
57 59 62 62 62 65 68 70 71 73 72 72 71 69 70 70 70 68 69 69 68 66 66 65 62 63 63 61 62 53 53 55 57
59 62 65 66 65 68 69 70 71 72 70 70 70 70 69 68 68 68 68 68 67 67 66 65 64 62 63 62 60 57 52 53 58
61 62 65 66 66 67 68 69 70 70 70 70 68 69 69 68 68 66 65 64 64 64 64 63 63 62 61 60 61 53 52 51 52
62 63 65 65 65 67 68 68 69 68 69 69 69 68 67 66 66 64 63 63 64 63 63 63 60 58 57 54 53 54 52 52 52
62 64 65 66 67 67 67 69 68 69 70 70 68 67 66 65 64 63 63 64 64 63 62 59 59 58 53 48 49 49 53 53 53
63 64 66 67 67 67 67 69 68 69 70 68 66 66 64 64 62 61 62 64 61 61 59 54 57 54 49 48 46 49 49 48 50
65 66 66 67 68 68 68 68 69 69 70 68 65 64 62 61 61 63 59 58 55 49 50 48 46 45 48 46 47 48 47 46 47
64 65 66 67 67 69 68 68 68 69 68 67 66 64 64 63 60 58 57 56 55 54 51 47 46 46 46 45 45 47 47 47 46
Lifted_Index
-4 -4 -4 -4 -3 -3 -3 -3 -3 -3 -3 -4 -4 -5 -5 -5 -5 -5 -5 -5 -5 -5 -5 -5 -5 -5 -5 -5 -5 -4 -4 -4 -4
-3 -4 -4 -4 -3 -3 -3 -3 -3 -3 -3 -4 -4 -5 -5 -5 -5 -6 -6 -6 -5 -5 -5 -5 -5 -6 -5 -5 -5 -5 -5 -4 -4
-3 -4 -4 -4 -3 -3 -3 -3 -3 -3 -3 -4 -4 -4 -5 -5 -6 -6 -6 -6 -6 -5 -6 -6 -6 -6 -6 -5 -5 -5 -5 -5 -5
-3 -4 -4 -4 -3 -3 -3 -3 -3 -3 -3 -4 -4 -4 -5 -5 -6 -6 -6 -6 -6 -6 -6 -7 -6 -6 -6 -6 -6 -6 -6 -5 -5
-4 -4 -4 -4 -3 -3 -3 -3 -3 -3 -4 -4 -4 -4 -5 -6 -6 -6 -6 -6 -6 -6 -6 -6 -6 -6 -6 -6 -6 -6 -6 -6 -5
-4 -4 -5 -4 -3 -3 -3 -3 -4 -4 -4 -5 -5 -5 -6 -6 -6 -6 -5 -5 -4 -4 -4 -4 -4 -5 -5 -5 -5 -5 -5 -5 -5
-4 -5 -5 -4 -4 -4 -4 -4 -5 -5 -5 -5 -6 -6 -6 -6 -6 -5 -4 -4 -3 -3 -3 -2 -2 -3 -3 -3 -3 -3 -3 -4 -4
-5 -5 -5 -4 -4 -4 -5 -6 -6 -6 -6 -6 -6 -6 -6 -6 -6 -5 -4 -4 -3 -3 -3 -2 -2 -2 -1 -1 -0 -0 -0 -1 -1
-5 -5 -5 -5 -4 -5 -6 -7 -7 -7 -7 -7 -7 -7 -7 -7 -6 -5 -5 -4 -4 -3 -2 -2 -2 -1 -1 0 1 2 3 2 1
-5 -5 -5 -5 -5 -5 -6 -7 -7 -8 -7 -7 -7 -7 -7 -7 -6 -5 -5 -4 -3 -2 -2 -1 -1 -1 -0 1 2 4 4 4 3
-5 -5 -6 -6 -6 -6 -7 -7 -8 -8 -8 -8 -8 -7 -7 -6 -5 -5 -4 -4 -3 -2 -1 -1 -0 0 0 2 4 5 5 5 3
-5 -6 -6 -6 -6 -7 -7 -8 -8 -9 -8 -8 -7 -6 -6 -5 -5 -4 -4 -4 -3 -2 -1 -0 0 1 1 2 4 6 6 6 4
-6 -6 -7 -7 -7 -7 -8 -8 -8 -8 -8 -7 -6 -5 -4 -4 -4 -3 -3 -3 -2 -1 -0 -0 0 1 2 3 4 6 7 7 6
-6 -6 -7 -8 -7 -8 -8 -8 -8 -8 -7 -6 -4 -4 -3 -3 -3 -3 -2 -1 0 1 1 0 1 1 2 3 4 6 8 8 8
-6 -7 -7 -7 -7 -7 -7 -7 -7 -6 -5 -4 -3 -3 -2 -2 -2 -1 -0 1 2 2 2 1 1 2 2 3 5 8 9 9 9
-6 -7 -7 -7 -7 -7 -7 -6 -6 -5 -5 -4 -3 -2 -2 -1 -1 0 1 2 2 2 2 2 2 2 2 4 6 8 9 9 10
-7 -7 -7 -7 -7 -6 -6 -5 -5 -5 -4 -3 -2 -2 -1 -0 0 1 1 2 2 2 3 3 3 3 3 5 7 8 9 9 9
-7 -7 -7 -6 -6 -6 -6 -5 -5 -4 -4 -3 -2 -1 -1 0 0 0 1 1 2 3 4 4 4 4 5 6 7 9 10 11 10
-7 -7 -7 -7 -7 -6 -6 -5 -5 -4 -4 -3 -2 -1 -0 -0 -0 -0 -0 1 2 3 4 5 5 6 7 7 9 11 12 13 13
-7 -7 -7 -7 -7 -7 -6 -5 -5 -4 -4 -3 -2 -1 -1 -0 -1 -1 -0 0 2 3 5 5 6 7 8 8 10 11 13 13 14